Flag for France Weather past 2 weeks in Paris, France

Now
61 °F

Partly sunny.


Feels Like: 61 °F
Forecast: 48 / 65 °F
Wind: 10 mph from Northeast

Location: Villacoublay


UV Index: 0 (Low)

Visibility: 5 mi


Pressure: 29.89 "Hg

Humidity: 68%

Dew point: 50 °F

Location of ParisLocation

Historic Weather in Paris

°F

Paris temperature yesterday

Maximum temperature yesterday: 66 °F (at 2:30 PM)
Minimum temperature yesterday: 46 °F (at 6:00 AM)
Average temperature yesterday: 56 °F

Past Weeks' High & Low Weather Summary

 TemperatureHumidityPressure
High68 °F (Apr 10, 4:30 PM)100% (Apr 23, 4:30 AM)30.36 "Hg (Apr 23, 4:30 AM)
Low41 °F (Apr 16, 7:00 AM)23% (Apr 17, 6:00 PM)29.59 "Hg (Apr 20, 3:30 PM)
Average53 °F62%30.04 "Hg
* Reported Apr 9 8:00 PM — Apr 24 8:30 PM, Paris, Weather by CustomWeather, © 2014

Note: Actual official high and low records may vary slightly from our data, if they occured in-between our weather recording intervals... More about our weather records

Advertising

Historic Weather Conditions — Data for Previous 24 hours

 ConditionsComfort  
Time TempWeatherWind HumidityBarometerVisibility
8:30 PM
Apr 24
63 °FPassing clouds.9 mph56%29.92 "HgN/A
8:00 PM63 °FPassing clouds.9 mph64%29.92 "HgN/A
7:30 PM64 °FBroken clouds.10 mph56%29.92 "HgN/A
7:00 PM64 °FBroken clouds.8 mph56%29.92 "HgN/A
6:30 PM64 °FPartly sunny.8 mph56%29.95 "HgN/A
6:00 PM64 °FScattered clouds.5 mph52%29.95 "HgN/A
5:30 PM66 °FPartly sunny.6 mph52%29.95 "HgN/A
5:00 PM64 °FBroken clouds.8 mph52%29.98 "HgN/A
4:30 PM66 °FBroken clouds.5 mph49%29.98 "HgN/A
4:00 PM64 °FBroken clouds.7 mph49%30.01 "HgN/A
3:30 PM64 °FBroken clouds.8 mph52%30.01 "HgN/A
3:00 PM64 °FBroken clouds.5 mph52%30.04 "HgN/A
2:30 PM63 °FScattered clouds.6 mph56%30.04 "HgN/A
2:00 PM63 °FPassing clouds.7 mph56%30.04 "HgN/A
1:30 PM63 °FClear.9 mph56%30.07 "HgN/A
1:00 PM61 °FClear.8 mph55%30.07 "HgN/A
12:30 PM61 °FClear.8 mph55%30.07 "HgN/A
12:00 PM59 °FClear.7 mph59%30.09 "HgN/A
11:30 AM59 °FClear.6 mph63%30.09 "HgN/A
11:00 AM59 °FClear.3 mph68%30.09 "HgN/A
10:30 AM59 °FClear.2 mph68%30.09 "HgN/A
10:00 AM57 °FMostly cloudy.3 mph77%30.09 "HgN/A
9:30 AM55 °FBroken clouds.3 mph77%30.09 "HgN/A
9:00 AM55 °FMostly cloudy.2 mph77%30.09 "HgN/A
8:30 AM54 °FPartly sunny.2 mph82%30.09 "HgN/A
8:00 AM54 °FMore clouds than sun.2 mph82%30.09 "HgN/A
7:30 AM52 °FMostly cloudy.2 mph88%30.09 "HgN/A
7:00 AM52 °FClear.2 mph88%30.09 "HgN/A
6:30 AM52 °FClear.2 mph88%30.09 "HgN/A
6:00 AM54 °FClear.2 mph82%30.09 "HgN/A
5:30 AM54 °FClear.3 mph82%30.09 "HgN/A
5:00 AM54 °FClear.2 mph82%30.09 "HgN/A
4:30 AM54 °FClear.5 mph82%30.09 "HgN/A
4:00 AM54 °FClear.5 mph82%30.09 "HgN/A
3:30 AM54 °FClear.5 mph82%30.09 "HgN/A
3:00 AM54 °FClear.6 mph82%30.09 "HgN/A
2:30 AM54 °FClear.5 mph82%30.09 "HgN/A
2:00 AM54 °FClear.6 mph82%30.12 "HgN/A
1:30 AM54 °FLight rain. Clear.2 mph82%30.12 "HgN/A
1:00 AM54 °FClear.2 mph82%30.12 "HgN/A
12:30 AM54 °FClear.6 mph77%30.12 "HgN/A
12:00 AM55 °FClear.5 mph77%30.12 "HgN/A
11:30 PM
Apr 23
55 °FClear.6 mph77%30.09 "HgN/A
11:00 PM55 °FLight rain. Clear.6 mph77%30.09 "HgN/A
10:30 PM55 °FClear.7 mph77%30.12 "HgN/A
10:00 PM55 °FClear.7 mph77%30.09 "HgN/A
9:30 PM57 °FClear.8 mph72%30.09 "HgN/A
9:00 PM59 °FLight rain. Partly sunny.6 mph68%30.09 "HgN/A
Weather by CustomWeather, © 2014

See weather overview